BEL8HU ELLX-LDDU

Flight info

Callsign BEL8HU
Flight time 1h 46m
Altitude 33000
Route GTQ DCT BEGAR DCT TRA DCT GAMSA N871 MADEB N606 ELMEM L607 GEDSO DCT VEKEN DCT ALIVO DCT SIPAL
Aircraft A319/M-SDE3FGHIRWY/LB1

Departure

Time 2026-05-01 13:43
Airport Luxembourg-Findel International Airport (ELLX)

Arrival

Time 2026-05-01 15:29
Airport Dubrovnik Ruđer Bošković Airport (LDDU)
Time Latitude Longitude Altitude Speed Heading
2026-05-01 13:17 49.63353 6.21682 1230 ft 0 kts 330°
2026-05-01 13:30 49.63336 6.21700 1230 ft 4 kts 299°
2026-05-01 13:31 49.63340 6.21759 1230 ft 0 kts 240°
2026-05-01 13:34 49.63338 6.21754 1230 ft 1 kts 240°
2026-05-01 13:35 49.63274 6.21663 1230 ft 9 kts 186°
2026-05-01 13:35 49.63213 6.21712 1230 ft 10 kts 150°
2026-05-01 13:35 49.63096 6.21710 1225 ft 12 kts 246°
2026-05-01 13:36 49.63061 6.21596 1226 ft 12 kts 244°
2026-05-01 13:36 49.63027 6.21484 1227 ft 11 kts 244°
2026-05-01 13:36 49.62957 6.21262 1232 ft 12 kts 244°
2026-05-01 13:37 49.62922 6.21148 1233 ft 12 kts 244°
2026-05-01 13:37 49.62877 6.21005 1233 ft 16 kts 244°
2026-05-01 13:37 49.62832 6.20860 1246 ft 13 kts 245°
2026-05-01 13:37 49.62789 6.20741 1245 ft 14 kts 230°
2026-05-01 13:38 49.62645 6.20547 1245 ft 14 kts 226°
2026-05-01 13:38 49.62571 6.20418 1234 ft 17 kts 229°
2026-05-01 13:38 49.62499 6.20283 1227 ft 16 kts 234°
2026-05-01 13:39 49.62435 6.20115 1217 ft 20 kts 240°
2026-05-01 13:39 49.62363 6.19922 1206 ft 20 kts 240°
2026-05-01 13:39 49.62295 6.19742 1195 ft 18 kts 240°
2026-05-01 13:39 49.62225 6.19554 1185 ft 21 kts 240°
2026-05-01 13:40 49.62163 6.19383 1174 ft 13 kts 240°
2026-05-01 13:40 49.62105 6.19229 1171 ft 18 kts 240°
2026-05-01 13:40 49.62042 6.19059 1165 ft 19 kts 240°
2026-05-01 13:40 49.61978 6.18888 1158 ft 17 kts 240°
2026-05-01 13:41 49.61908 6.18760 1156 ft 14 kts 218°
2026-05-01 13:41 49.61833 6.18702 1157 ft 11 kts 178°
2026-05-01 13:41 49.61773 6.18765 1159 ft 10 kts 120°
2026-05-01 13:41 49.61784 6.18839 1160 ft 0 kts 58°
2026-05-01 13:42 49.61785 6.18840 1160 ft 1 kts 58°
2026-05-01 13:42 49.61889 6.19109 1167 ft 65 kts 60°
2026-05-01 13:42 49.62220 6.20008 1215 ft 124 kts 59°
2026-05-01 13:43 49.62730 6.21396 1229 ft 173 kts 60°
2026-05-01 13:43 49.63360 6.23008 1788 ft 172 kts 61°
2026-05-01 13:43 49.63965 6.24595 2382 ft 172 kts 64°
2026-05-01 13:43 49.64515 6.26236 2994 ft 175 kts 76°
2026-05-01 13:44 49.64378 6.28123 3227 ft 192 kts 122°
2026-05-01 13:44 49.63364 6.29653 3541 ft 218 kts 140°
2026-05-01 13:44 49.62136 6.31235 4001 ft 242 kts 140°
2026-05-01 13:44 49.60818 6.32974 4798 ft 254 kts 140°
2026-05-01 13:45 49.59474 6.34770 5717 ft 258 kts 140°
2026-05-01 13:45 49.58111 6.36602 6639 ft 262 kts 140°
2026-05-01 13:45 49.56746 6.38444 7512 ft 266 kts 140°
2026-05-01 13:45 49.55233 6.40110 8392 ft 270 kts 153°
2026-05-01 13:46 49.53515 6.41329 9269 ft 274 kts 156°
2026-05-01 13:46 49.51763 6.42539 10146 ft 278 kts 156°
2026-05-01 13:46 49.49958 6.43787 10645 ft 295 kts 156°
2026-05-01 13:46 49.48008 6.45136 10956 ft 317 kts 156°
2026-05-01 13:47 49.45964 6.46551 11584 ft 326 kts 156°
2026-05-01 13:47 49.43878 6.47996 12323 ft 331 kts 155°
2026-05-01 13:47 49.41769 6.49455 13119 ft 334 kts 155°
2026-05-01 13:47 49.39639 6.50930 13923 ft 337 kts 155°
2026-05-01 13:48 49.37487 6.52421 14607 ft 341 kts 155°
2026-05-01 13:48 49.35315 6.53925 15280 ft 345 kts 155°
2026-05-01 13:48 49.33121 6.55439 15951 ft 348 kts 155°
2026-05-01 13:48 49.30902 6.56966 16613 ft 352 kts 155°
2026-05-01 13:49 49.28654 6.58508 17236 ft 356 kts 155°
2026-05-01 13:49 49.26377 6.60072 17879 ft 360 kts 155°
2026-05-01 13:49 49.24079 6.61646 18543 ft 364 kts 156°
2026-05-01 13:49 49.21674 6.62898 19120 ft 368 kts 165°
2026-05-01 13:50 49.19178 6.63856 19670 ft 372 kts 165°
2026-05-01 13:50 49.16654 6.64814 20216 ft 376 kts 165°
2026-05-01 13:50 49.14109 6.65777 20818 ft 378 kts 165°
2026-05-01 13:50 49.11535 6.66749 21358 ft 382 kts 165°
2026-05-01 13:51 49.08939 6.67729 21880 ft 387 kts 165°
2026-05-01 13:51 49.06310 6.68723 22435 ft 390 kts 165°
2026-05-01 13:51 49.03699 6.69709 22967 ft 394 kts 165°
2026-05-01 13:51 49.01022 6.70724 23455 ft 399 kts 165°
2026-05-01 13:52 48.98368 6.72006 23905 ft 402 kts 156°
2026-05-01 13:52 48.95862 6.73925 24335 ft 404 kts 150°
2026-05-01 13:52 48.93386 6.75979 24782 ft 407 kts 150°
2026-05-01 13:52 48.90886 6.78033 25204 ft 409 kts 150°
2026-05-01 13:53 48.88373 6.80088 25602 ft 412 kts 151°
2026-05-01 13:53 48.83290 6.84240 26437 ft 417 kts 151°
2026-05-01 13:53 48.80728 6.86334 26854 ft 419 kts 151°
2026-05-01 13:54 48.78153 6.88438 27246 ft 422 kts 151°
2026-05-01 13:54 48.75559 6.90551 27635 ft 425 kts 151°
2026-05-01 13:54 48.72947 6.92677 28020 ft 428 kts 151°
2026-05-01 13:54 48.70318 6.94815 28417 ft 430 kts 151°
2026-05-01 13:55 48.67671 6.96963 28816 ft 433 kts 151°
2026-05-01 13:55 48.65044 6.99091 29168 ft 436 kts 151°
2026-05-01 13:55 48.62364 7.01265 29519 ft 439 kts 151°
2026-05-01 13:55 48.59662 7.03455 29878 ft 442 kts 151°
2026-05-01 13:56 48.56953 7.05650 30241 ft 444 kts 151°
2026-05-01 13:56 48.54220 7.07862 30534 ft 447 kts 151°
2026-05-01 13:56 48.51470 7.10082 30821 ft 449 kts 151°
2026-05-01 13:56 48.48713 7.12304 31124 ft 451 kts 151°
2026-05-01 13:57 48.45943 7.14534 31417 ft 452 kts 151°
2026-05-01 13:57 48.44103 7.16012 31606 ft 454 kts 151°
2026-05-01 13:57 48.40365 7.19012 32027 ft 455 kts 152°
2026-05-01 13:57 48.37582 7.21248 32457 ft 453 kts 152°
2026-05-01 13:58 48.34802 7.23473 32887 ft 451 kts 152°
2026-05-01 13:58 48.32034 7.25683 33206 ft 450 kts 152°
2026-05-01 13:58 48.26583 7.30040 33279 ft 437 kts 152°
2026-05-01 13:59 48.21242 7.34300 33274 ft 438 kts 152°
2026-05-01 13:59 48.15859 7.38581 33274 ft 438 kts 152°
2026-05-01 14:00 48.10474 7.42848 33275 ft 438 kts 152°
2026-05-01 14:00 48.05088 7.47107 33274 ft 438 kts 152°
2026-05-01 14:01 47.99696 7.51357 33280 ft 438 kts 152°
2026-05-01 14:01 47.94418 7.55873 33282 ft 438 kts 143°
2026-05-01 14:02 47.90849 7.61198 33278 ft 438 kts 126°
2026-05-01 14:02 47.88090 7.69225 33280 ft 437 kts 110°
2026-05-01 14:03 47.85606 7.79084 33277 ft 438 kts 110°
2026-05-01 14:03 47.83794 7.86193 33277 ft 438 kts 110°
2026-05-01 14:04 47.81621 7.94675 33278 ft 439 kts 110°
2026-05-01 14:04 47.79446 8.03157 33285 ft 439 kts 110°
2026-05-01 14:05 47.77278 8.11587 33290 ft 439 kts 110°
2026-05-01 14:05 47.75093 8.20058 33290 ft 439 kts 110°
2026-05-01 14:06 47.72901 8.28528 33290 ft 439 kts 110°
2026-05-01 14:06 47.70699 8.36986 33291 ft 439 kts 110°
2026-05-01 14:07 47.68501 8.45438 33304 ft 439 kts 109°
2026-05-01 14:08 47.65579 8.58298 33306 ft 438 kts 107°
2026-05-01 14:08 47.63710 8.66875 33304 ft 437 kts 107°
2026-05-01 14:09 47.61789 8.75437 33304 ft 437 kts 108°
2026-05-01 14:09 47.59827 8.83963 33312 ft 437 kts 107°
2026-05-01 14:10 47.57854 8.92479 33302 ft 437 kts 107°
2026-05-01 14:10 47.55889 9.00984 33302 ft 437 kts 107°
2026-05-01 14:11 47.53930 9.09493 33302 ft 436 kts 107°
2026-05-01 14:11 47.50971 9.22225 33304 ft 436 kts 107°
2026-05-01 14:12 47.49004 9.30641 33310 ft 436 kts 107°
2026-05-01 14:12 47.47019 9.39103 33302 ft 435 kts 107°
2026-05-01 14:13 47.45023 9.47556 33292 ft 435 kts 107°
2026-05-01 14:13 47.43031 9.55997 33294 ft 435 kts 107°
2026-05-01 14:14 47.41047 9.64438 33310 ft 434 kts 104°
2026-05-01 14:14 47.39809 9.73118 33309 ft 432 kts 98°
2026-05-01 14:15 47.38685 9.81819 33307 ft 431 kts 98°
2026-05-01 14:15 47.37560 9.90450 33306 ft 431 kts 98°
2026-05-01 14:16 47.36419 9.99143 33304 ft 431 kts 98°
2026-05-01 14:16 47.35267 10.07817 33323 ft 431 kts 98°
2026-05-01 14:17 47.34110 10.16471 33316 ft 430 kts 98°
2026-05-01 14:17 47.32947 10.25111 33311 ft 430 kts 98°
2026-05-01 14:18 47.31775 10.33746 33305 ft 429 kts 98°
2026-05-01 14:18 47.30800 10.40906 33320 ft 429 kts 98°
2026-05-01 14:19 47.29415 10.50952 33316 ft 428 kts 98°
2026-05-01 14:19 47.28212 10.59534 33314 ft 428 kts 99°
2026-05-01 14:20 47.26266 10.72349 33299 ft 427 kts 100°
2026-05-01 14:21 47.24935 10.80862 33309 ft 427 kts 100°
2026-05-01 14:21 47.23627 10.89311 33303 ft 426 kts 99°
2026-05-01 14:22 47.21653 11.02042 33284 ft 424 kts 100°
2026-05-01 14:22 47.20325 11.10514 33285 ft 426 kts 100°
2026-05-01 14:23 47.18994 11.19003 33282 ft 426 kts 100°
2026-05-01 14:23 47.17661 11.27470 33291 ft 425 kts 99°
2026-05-01 14:24 47.16319 11.35914 33292 ft 424 kts 99°
2026-05-01 14:24 47.14978 11.44341 33296 ft 423 kts 99°
2026-05-01 14:25 47.13627 11.52755 33276 ft 423 kts 100°
2026-05-01 14:25 47.12267 11.61146 33292 ft 422 kts 99°
2026-05-01 14:26 47.10226 11.73735 33292 ft 423 kts 99°
2026-05-01 14:27 47.08865 11.82060 33297 ft 422 kts 99°
2026-05-01 14:27 47.06986 11.90252 33288 ft 428 kts 112°
2026-05-01 14:28 47.03059 12.02000 33283 ft 427 kts 112°
2026-05-01 14:28 47.00439 12.09826 33282 ft 428 kts 112°
2026-05-01 14:29 46.97807 12.17643 33274 ft 428 kts 112°
2026-05-01 14:30 46.92528 12.33276 33295 ft 429 kts 112°
2026-05-01 14:31 46.88552 12.44990 33319 ft 428 kts 112°
2026-05-01 14:31 46.85918 12.52732 33309 ft 428 kts 112°
2026-05-01 14:32 46.83251 12.60518 33295 ft 428 kts 112°
2026-05-01 14:32 46.80587 12.68280 33288 ft 428 kts 112°
2026-05-01 14:33 46.77917 12.76045 33306 ft 427 kts 111°
2026-05-01 14:33 46.75251 12.83781 33298 ft 426 kts 111°
2026-05-01 14:34 46.72601 12.91444 33286 ft 426 kts 111°
2026-05-01 14:34 46.69928 12.99161 33294 ft 427 kts 112°
2026-05-01 14:35 46.67251 13.06876 33287 ft 427 kts 112°
2026-05-01 14:35 46.64569 13.14572 33317 ft 426 kts 111°
2026-05-01 14:36 46.61869 13.22271 33317 ft 427 kts 111°
2026-05-01 14:36 46.59178 13.29904 33321 ft 427 kts 112°
2026-05-01 14:37 46.56265 13.37431 33319 ft 432 kts 121°
2026-05-01 14:37 46.52044 13.43770 33333 ft 440 kts 132°
2026-05-01 14:38 46.47530 13.49766 33332 ft 440 kts 132°
2026-05-01 14:38 46.43024 13.55778 33325 ft 440 kts 132°
2026-05-01 14:39 46.38518 13.61797 33322 ft 441 kts 132°
2026-05-01 14:39 46.34000 13.67798 33337 ft 441 kts 132°
2026-05-01 14:40 46.29468 13.73797 33347 ft 441 kts 131°
2026-05-01 14:40 46.24936 13.79787 33336 ft 442 kts 131°
2026-05-01 14:41 46.20399 13.85777 33314 ft 442 kts 131°
2026-05-01 14:41 46.15856 13.91752 33314 ft 442 kts 131°
2026-05-01 14:42 46.11334 13.97677 33320 ft 442 kts 132°
2026-05-01 14:42 46.06778 14.03638 33356 ft 443 kts 131°
2026-05-01 14:43 46.02226 14.09605 33335 ft 442 kts 131°
2026-05-01 14:43 45.97665 14.15555 33335 ft 442 kts 131°
2026-05-01 14:44 45.93103 14.21497 33331 ft 442 kts 131°
2026-05-01 14:44 45.86252 14.30382 33328 ft 443 kts 131°
2026-05-01 14:45 45.79419 14.39203 33351 ft 442 kts 131°
2026-05-01 14:46 45.74846 14.45094 33342 ft 442 kts 131°
2026-05-01 14:46 45.67993 14.53905 33334 ft 441 kts 131°
2026-05-01 14:47 45.63425 14.59759 33330 ft 441 kts 131°
2026-05-01 14:48 45.56566 14.68510 33331 ft 440 kts 131°
2026-05-01 14:48 45.49465 14.76891 33327 ft 446 kts 137°
2026-05-01 14:49 45.39400 14.87200 33312 ft 445 kts 137°
2026-05-01 14:50 45.29375 14.97431 33328 ft 445 kts 137°
2026-05-01 14:51 45.21826 15.05101 33324 ft 445 kts 137°
2026-05-01 14:52 45.14284 15.12751 33332 ft 444 kts 136°
2026-05-01 14:53 45.06750 15.20374 33313 ft 444 kts 136°
2026-05-01 14:53 45.01729 15.25440 33309 ft 444 kts 136°
2026-05-01 14:54 44.96691 15.30502 33302 ft 444 kts 137°
2026-05-01 14:54 44.91654 15.35551 33315 ft 444 kts 136°
2026-05-01 14:55 44.86652 15.40560 33334 ft 444 kts 136°
2026-05-01 14:55 44.82436 15.44774 33322 ft 443 kts 136°
2026-05-01 14:56 44.76594 15.50602 33305 ft 443 kts 136°
2026-05-01 14:56 44.71566 15.55605 33296 ft 442 kts 136°
2026-05-01 14:57 44.67385 15.59749 33313 ft 442 kts 136°
2026-05-01 14:57 44.59847 15.67214 33322 ft 442 kts 136°
2026-05-01 14:58 44.54828 15.72167 33313 ft 441 kts 136°
2026-05-01 14:58 44.49802 15.77116 33299 ft 441 kts 136°
2026-05-01 14:59 44.44782 15.82045 33323 ft 441 kts 135°
2026-05-01 14:59 44.39767 15.86970 33289 ft 440 kts 135°
2026-05-01 15:00 44.32269 15.94313 33301 ft 441 kts 135°
2026-05-01 15:01 44.27247 15.99210 33287 ft 440 kts 135°
2026-05-01 15:01 44.22216 16.04102 33280 ft 441 kts 135°
2026-05-01 15:02 44.17180 16.08995 33261 ft 441 kts 135°
2026-05-01 15:02 44.12139 16.13887 33244 ft 442 kts 135°
2026-05-01 15:03 44.07115 16.18746 33269 ft 442 kts 135°
2026-05-01 15:03 44.02028 16.23663 33272 ft 442 kts 136°
2026-05-01 15:04 43.96997 16.28524 33224 ft 444 kts 136°
2026-05-01 15:04 43.91917 16.33412 33226 ft 445 kts 136°
2026-05-01 15:05 43.86814 16.38302 33247 ft 446 kts 136°
2026-05-01 15:05 43.81704 16.43183 33246 ft 445 kts 136°
2026-05-01 15:06 43.76607 16.48050 33240 ft 445 kts 138°
2026-05-01 15:06 43.71505 16.52916 33120 ft 447 kts 138°
2026-05-01 15:06 43.68984 16.55318 32632 ft 444 kts 137°
2026-05-01 15:07 43.66445 16.57732 32030 ft 441 kts 137°
2026-05-01 15:07 43.63922 16.60127 31444 ft 438 kts 136°
2026-05-01 15:07 43.61421 16.62499 30866 ft 435 kts 136°
2026-05-01 15:07 43.58938 16.64853 30289 ft 432 kts 135°
2026-05-01 15:08 43.56472 16.67190 29665 ft 428 kts 135°
2026-05-01 15:08 43.54031 16.69495 29136 ft 423 kts 135°
2026-05-01 15:08 43.51616 16.71772 28580 ft 419 kts 135°
2026-05-01 15:08 43.49226 16.74027 28047 ft 414 kts 135°
2026-05-01 15:09 43.46857 16.76259 27519 ft 410 kts 136°
2026-05-01 15:09 43.44514 16.78464 27005 ft 406 kts 136°
2026-05-01 15:09 43.42191 16.80649 26499 ft 403 kts 136°
2026-05-01 15:09 43.39882 16.82823 26009 ft 400 kts 136°
2026-05-01 15:10 43.37598 16.84974 25528 ft 397 kts 136°
2026-05-01 15:10 43.33063 16.89241 24587 ft 393 kts 137°
2026-05-01 15:10 43.30808 16.91356 24120 ft 391 kts 137°
2026-05-01 15:11 43.28561 16.93457 23630 ft 390 kts 137°
2026-05-01 15:11 43.24182 16.97535 22509 ft 373 kts 137°
2026-05-01 15:11 43.22062 16.99502 21968 ft 363 kts 137°
2026-05-01 15:12 43.19977 17.01448 21447 ft 363 kts 137°
2026-05-01 15:12 43.15815 17.05348 20436 ft 362 kts 138°
2026-05-01 15:12 43.13904 17.07511 19963 ft 352 kts 127°
2026-05-01 15:13 43.09868 17.15411 18632 ft 326 kts 117°
2026-05-01 15:14 43.07398 17.20613 17662 ft 326 kts 117°
2026-05-01 15:14 43.06166 17.23217 17181 ft 326 kts 117°
2026-05-01 15:14 43.03702 17.28391 16222 ft 319 kts 117°
2026-05-01 15:15 43.01340 17.33343 15362 ft 307 kts 117°
2026-05-01 15:15 42.99008 17.38265 14518 ft 309 kts 117°
2026-05-01 15:16 42.96714 17.43076 13659 ft 295 kts 118°
2026-05-01 15:16 42.94516 17.47676 12754 ft 285 kts 118°
2026-05-01 15:17 42.92341 17.52235 11884 ft 285 kts 118°
2026-05-01 15:18 42.89178 17.58813 10738 ft 268 kts 118°
2026-05-01 15:18 42.88167 17.60923 10364 ft 270 kts 119°
2026-05-01 15:19 42.85118 17.67260 9182 ft 259 kts 118°
2026-05-01 15:19 42.83144 17.71357 8385 ft 252 kts 119°
2026-05-01 15:19 42.82194 17.73320 7997 ft 244 kts 119°
2026-05-01 15:20 42.80381 17.77064 7296 ft 231 kts 119°
2026-05-01 15:20 42.79501 17.78886 6947 ft 230 kts 118°
2026-05-01 15:20 42.78625 17.80671 6597 ft 230 kts 122°
2026-05-01 15:21 42.77528 17.82260 6239 ft 232 kts 135°
2026-05-01 15:21 42.76183 17.83481 5922 ft 233 kts 148°
2026-05-01 15:21 42.74751 17.84495 5614 ft 231 kts 148°
2026-05-01 15:21 42.73343 17.85543 5302 ft 230 kts 141°
2026-05-01 15:22 42.71214 17.88575 4690 ft 217 kts 116°
2026-05-01 15:22 42.70512 17.90370 4433 ft 213 kts 112°
2026-05-01 15:22 42.69820 17.92139 4188 ft 210 kts 113°
2026-05-01 15:23 42.69135 17.93877 3934 ft 207 kts 113°
2026-05-01 15:23 42.68469 17.95562 3802 ft 198 kts 113°
2026-05-01 15:23 42.67827 17.97190 3646 ft 194 kts 112°
2026-05-01 15:23 42.67194 17.98797 3469 ft 191 kts 112°
2026-05-01 15:24 42.66571 18.00377 3288 ft 188 kts 112°
2026-05-01 15:24 42.65959 18.01929 3105 ft 185 kts 112°
2026-05-01 15:24 42.65355 18.03464 2929 ft 184 kts 112°
2026-05-01 15:24 42.64750 18.05004 2758 ft 184 kts 113°
2026-05-01 15:25 42.64154 18.06520 2652 ft 185 kts 112°
2026-05-01 15:25 42.63547 18.08061 2606 ft 185 kts 112°
2026-05-01 15:25 42.62947 18.09582 2648 ft 181 kts 112°
2026-05-01 15:25 42.62366 18.11050 2604 ft 166 kts 111°
2026-05-01 15:26 42.61841 18.12382 2522 ft 157 kts 110°
2026-05-01 15:26 42.61351 18.13618 2369 ft 140 kts 110°
2026-05-01 15:26 42.60905 18.14751 2193 ft 133 kts 110°
2026-05-01 15:26 42.60477 18.15840 2030 ft 130 kts 111°
2026-05-01 15:27 42.60049 18.16927 1861 ft 131 kts 110°
2026-05-01 15:27 42.59619 18.18017 1691 ft 130 kts 111°
2026-05-01 15:27 42.59199 18.19078 1509 ft 126 kts 110°
2026-05-01 15:28 42.58382 18.21146 1169 ft 124 kts 113°
2026-05-01 15:28 42.57975 18.22174 1017 ft 123 kts 113°
2026-05-01 15:28 42.57569 18.23202 832 ft 123 kts 113°
2026-05-01 15:29 42.56767 18.25232 550 ft 122 kts 115°
2026-05-01 15:29 42.56435 18.26090 534 ft 81 kts 119°
2026-05-01 15:29 42.56232 18.26601 534 ft 7 kts 121°
2026-05-01 15:30 42.56144 18.26591 534 ft 6 kts 244°
2026-05-01 15:31 42.56129 18.26553 534 ft 5 kts 242°
2026-05-01 15:31 42.56100 18.26448 534 ft 7 kts 278°
2026-05-01 15:32 42.56150 18.26319 534 ft 9 kts 298°
2026-05-01 15:32 42.56183 18.26182 534 ft 8 kts 233°
2026-05-01 15:33 42.56142 18.26150 534 ft 0 kts 208°